Regional Weather Roundup
Issued by NWS Wakefield, VA

Home | Current Version | Previous Version | Text Only | Print | Product List | Glossary On
Versions: 1 2 3 4 5 6 7 8 9 10 11 12 13 14 15 16 17 18 19 20 21 22 23 24 25 26 27 28 29 30 31 32 33 34 35 36 37 38 39 40 41 42 43 44 45 46 47 48 49 50
000
ASUS41 KAKQ 300410
RWRAKQ

REGIONAL WEATHER ROUNDUP
NATIONAL WEATHER SERVICE WAKEFIELD VA
1100 PM EST THU JAN 29 2015

Note: "fair" indicates few or no clouds below 12,000 feet with no
significant weather and/or obstructions to visibility. * = Denotes
station may not report precipitation (e.g., rain,snow,etc.),
thunder or fog.

VAZ042-051-052>054-056-300500-
NORTHERN VIRGINIA

CITY           SKY/WX    TMP DP  RH WIND       PRES   REMARKS
WASH NATIONAL  CLOUDY    39  22  50 S9        29.95F
DULLES         CLOUDY    35  22  58 SW7       29.93F
FORT BELVOIR   CLOUDY    38  20  47 VRB5      29.95F
QUANTICO       CLOUDY    39  25  57 SW7       29.96F
FREDERICKSBRG* CLOUDY    43  22  44 S14G20    29.94F
STAFFORD*      CLOUDY    41  19  40 CALM      29.98F
WARRENTON      CLOUDY    40  29  63 SW6       29.93F
CULPEPER*      CLOUDY    41  25  52 S6        29.94F
MANASSAS*      CLOUDY    37  25  60 S5        29.94F
LEESBURG*      CLOUDY    34  30  86 S5        29.93F
WINCHESTER     CLOUDY    37  25  60 SW5       29.89S
FRONT ROYAL*   CLOUDY    37  28  70 CALM      29.88S
LURAY*         CLOUDY    41  30  65 SW6       29.89F
$$

VAZ048-049-060>072-079>083-300500-
CENTRAL AND SOUTH CENTRAL VIRGINIA

CITY           SKY/WX    TMP DP  RH WIND       PRES   REMARKS
RICHMOND       CLOUDY    40  21  46 S9        30.00F
CHESTERFIELD*  CLOUDY    37  16  41 S8        30.01F
PETERSBURG*    CLOUDY    38  20  48 S6        30.02F
HANOVER        CLOUDY    40  20  44 S10       30.00F
TAPPAHANNOCK*  CLOUDY    40  14  33 S9        30.01F
QUINTON*       CLOUDY    38  19  45 S6        30.02F
CHARLOTTSVILLE MOCLDY    37  23  56 S10       29.93F
GORDONSVILLE*  CLOUDY    39  23  53 SW7       29.94F
ORANGE*        CLOUDY    39  25  56 S5        29.96S
LOUISA*        CLOUDY    39  21  48 S5        29.93F
BUMPASS*       CLOUDY    40  21  46 SW9       29.96F
FARMVILLE*     CLOUDY    43  25  49 SW8       29.96F
CREWE*         CLOUDY    40  22  48 S6        29.98F
FORT PICKETT*  CLOUDY    37  24  57 S6        30.00F
CHASE CITY*    CLOUDY    40  27  58 CALM      30.01S
CLARKSVILLE*   CLOUDY    37  27  65 SW8       30.01F
SOUTH HILL*    MOCLDY    35  23  62 S8        30.07F
LAWRENCEVILLE* FAIR      34  23  64 CALM      30.01F
EMPORIA*       PTCLDY    34  21  60 SE6       30.05F
$$

VAZ088>098-300500-
SOUTHEAST VIRGINIA

CITY           SKY/WX    TMP DP  RH WIND       PRES   REMARKS
NORFOLK        CLOUDY    40  23  50 S13       30.06F
VIRGINIA BEACH CLOUDY    41  25  53 S9        30.07F
NORFOLK NAVAL  MOCLDY    44  23  43 S12G17    30.07F
WEST POINT*    MOCLDY    41  19  42 S5        30.05F
SALUDA*        MOCLDY    39  20  47 S7        30.02F
NEWPORT NEWS   CLOUDY    42  23  46 S8        30.04F
LANGLEY AFB    CLOUDY    40  23  50 S13       30.05F
FORT EUSTIS    CLOUDY    39  27  61 S9        30.02F
WILLIAMSBURG*    N/A     43  25  49 S9        30.04F
HR EXEC AP*    CLOUDY    39  23  52 S7        30.09F
FRANKLIN*      PTCLDY    35  23  61 S6        30.07F
WAKEFIELD      CLOUDY    39  19  44 S7        30.04F
$$

VAZ020-022-025-037-045-300500-
WEST CENTRAL AND SOUTHWEST VIRGINIA

CITY           SKY/WX    TMP DP  RH WIND       PRES   REMARKS
STAUNTON*      CLOUDY    40  26  58 S3        29.93S
WAYNESBORO*    CLOUDY    39  26  60 CALM      29.90F
HOT SPRINGS VA CLOUDY    34  33  96 W18       29.83S FOG     WCI  23
LYNCHBURG      CLOUDY    39  26  59 S5        29.97F
DANVILLE       CLOUDY    42  26  53 SW9       30.01F
SOUTH BOSTON*  CLOUDY    42  24  47 S7        30.00F
MARTINSVILLE   CLOUDY    44  25  48 SW5       30.01F
ROANOKE        CLOUDY    43  27  53 CALM      29.96F
BLACKSBURG     CLOUDY    39  27  62 W3        29.97F
DUBLIN*        CLOUDY    39  32  75 SW3       29.96S
MARION*        CLOUDY    45  34  65 W18G30    29.97S
HILLSVILLE*    CLOUDY    38  27  64 S3        29.95S
RICHLANDS*     LGT RAIN  36  34  91 NW10G18   30.01R
WISE*          LGT RAIN  34  34 100 NW5       30.07R
ABINGDON*      CLOUDY    45  38  77 N12G21    30.02R
$$

MDZ021>025-VAZ099-100-300500-
SOUTHERN MARYLAND AND THE DELMARVA PENINSULA

CITY           SKY/WX    TMP DP  RH WIND       PRES   REMARKS
PATUXENT RIVER CLOUDY    39  20  46 S12G22    29.97F
BAY BRIDGE APT   N/A     36  28  75 S13       29.97F
LEONARDTOWN    CLOUDY    37  21  52 S12G17    29.99F
DOVER          NOT AVBL
GEORGETOWN     CLOUDY    36  24  62 S9        30.01F
EASTON         CLOUDY    38  28  67 S14       30.01F
CAMBRIDGE      CLOUDY    37  28  70 S10G18    29.99S
SALISBURY      CLOUDY    40  23  50 S10       30.01F
OCEAN CITY     CLOUDY    37  30  75 SW12      30.03F
WALLOPS ISLAND CLOUDY    38  29  70 SW16      30.04F
ACCOMACK*      CLOUDY    37  27  65 S7        30.04F
$$

NCZ012>017-030>032-300500-
NORTH CENTRAL AND EASTERN NORTH CAROLINA

CITY           SKY/WX    TMP DP  RH WIND       PRES   REMARKS
ROANOKE RAPIDS FAIR      32  27  80 S5        30.06F
RALEIGH        MOCLDY    38  24  57 S7        30.06F
ELIZABETH CITY CLOUDY    41  29  62 S8        30.10F
AHOSKIE*       PTCLDY    31  23  70 S5        30.08F
EDENTON*       MOCLDY    41  30  65 S7        30.10F
CURRITUCK*     CLOUDY    42  24  49 S7        30.10F
KILL DEVIL HLS MOCLDY    41  30  66 SW5       30.09F
MANTEO         CLOUDY    41  32  70 SW9       30.11F
CAPE HATTERAS  LGT RAIN  49  40  71 SW9       30.11F
TARBORO*       FAIR      40  26  57 S3        30.09F
GOLDSBORO      PTCLDY    43  37  80 CALM      30.08F
WASHINGTON     MOCLDY    43  30  61 SW5       30.11S
GREENVILLE     PTCLDY    39  28  65 S3        30.12S
NEW BERN       LGT RAIN  47  37  68 SW5       30.12R
WILMINGTON     CLOUDY    50  41  71 SW7       30.12F
$$

VAZ048-300500-
ELSEWHERE

CITY           SKY/WX    TMP DP  RH WIND       PRES   REMARKS
HARRISBURG PA  FLURRIES  29  25  85 E5        29.93F
BALTIMORE      CLOUDY    34  24  67 CALM      29.94F
ANNAPOLIS      CLOUDY    36  28  73 S7        29.96F
ANDREWS AFB    CLOUDY    37  22  55 S10       29.93F
PHILADELPHIA   CLOUDY    33  22  63 VRB6      30.01F
HENDERSON NC   MOCLDY    37  23  56 S10       30.02F
GREENSBORO     CLOUDY    42  25  50 SW8       30.01F
ROCKY MOUNT    CLEAR     33  25  72 CALM      30.08F
$$

VAZ100-300500-
MARINE

STATION/POSITION TIME  TEMP    WIND        PRES    WAVE   SWELL
                       AIR SEA DIR/SP/G            HT/PER HT/PER
                 (UTC) (F)     (DEG/KT/KT) (MB)    (FT/S) (FT/S)
BRANDYWINE LGT   0400   36 36  200/ 14/ 19 1016.3F
CAPE MAY NJ      0400   36 36              1016.0F
LEWES DE         0400   36 36  190/  7/ 12 1015.9F
15NM E FENWICK I 0400   40 40              1016.6F   4/ 4
OCEAN-CITY-INLET 0400   38 36  220/ 16/ 19 1016.6F
WACHAPREAGUE VA  0400   38 36  200/  9/ 14 1017.6F
THOMAS POINT MD  0400   37 35  170/ 17/ 19 1015.1F
GOOSES REEF MD   0400   38 36  VRB 16/ 21  1013.5F   2/ 3
COVE POINT MD    0400   38     210/ 16/ 19 1015.2F
SOLOMONS ISLAND  0400      37                N/A
BISHOPS HEAD MD  0400   37 35  180/ 17/ 20 1015.2F
PINEY POINT MD   0400          200/  8/ 10   N/A
POTOMAC MD       0400   40 37  200/ 10/ 14 1015.0F
CAMBRIDGE MD     0400   37 35  170/  6/ 12 1015.3F
LEWISETTA VA     0400   40 36  220/ 14/ 17 1015.3F
RAPPAHANNOCK LGT 0400          180/ 15/ 16 1017.5F
STINGRAY PT      0400   39 38  190/ 10/ 12 1017.4F   1/ 3
YORK RVR RNG VA  0400   40     190/ 12/ 13 1016.7F
YORKTOWN VA      0400   40 39  200/ 10/ 14 1016.8F
JAMESTOWN VA     0400   38 40  180/  6/ 10   N/A     0
DOMINION TERM VA 0400   40     200/ 10/ 13 1018.0F
KIPTOPEKE VA     0400      44  200/ 13/ 14   N/A
CHES BAY BRIDGE  0400   40 40  180/ 10/ 12 1017.6F
CAPE HENRY VA    0400   39     190/  8/ 12 1016.8F
CHESAPEAKE LGHT  0300   41     200/ 20/ 21 1019.2F
WILLOUBY STN VA  0400   40     210/ 13/ 15 1018.2F
S CRANEY ISL VA  0400          190/  7/ 11 1018.0F
CAPE HENRY BUOY  0300      42                N/A     3/ 4   2/11
1ST LANDING BUOY 0400   40 40  200/ 12/ 16 1017.6F   1/ 4
CAPE CHARLES BUO 0400      41                N/A     3/ 4   2/11
OFFSHORE WE BUOY 0400      43                N/A     4/10   2/10
64NM E OF VA BCH 0400   45 49  210/ 17/ 21 1018.7F   3/11   2/11
DUCK PIER NC     0400   40 43  200/ 10/ 11 1018.5F
44100 DUCK FRF   0400      44                N/A     3/12   2/12
44056 DUCK FRF   0400      42                N/A     3/11   2/11
OREGON INLET NC  0400   42 41  180/  7/  8 1019.4F
HATTERAS NC      0400   49 44  230/  6/ 10 1019.6F



USA.gov is the U.S. government's official web portal to all federal, state and local government web resources and services.